User: anonymous   Login
Location: Unspecified
(0.0000°N, 0.0000°E)
Time: 00:26:43
(UTC+00:00)
Language:

CLOUDSAT - Orbit

View from above orbital plane
View from above orbital plane
View from above satellite
View from above satellite

Ground track
Ground track

The orbit data is extracted from the following two-line orbital elements,

1 29107U 06016A   16126.94767934 +.00000160 +00000-0 +45515-4 0  9998
2 29107 098.1957 070.8376 0000907 112.6202 247.5092 14.57108909532969
Epoch (UTC): 05 May 2016 22:44:39
Eccentricity: 0.0000907
inclination: 98.1957°
perigee height: 702 km
apogee height: 703 km
right ascension of ascending node: 70.8376°
argument of perigee: 112.6202°
revolutions per day: 14.57108909
mean anomaly at epoch: 247.5092°
orbit number at epoch: 53296

The dashed part of the orbit path shows where the satellite is in the earth's shadow,  

DLR